Asuncion, Paraguay

3:52 AM -04 en Septiembre 20, 2018 (GMT -0400)
Silvio Pettirossi International

Tiempo Historia de SGAS - Enero, 2018

Change the Weather History Date:

Sábado, Enero 13, 2018

  Actual Average Record
Temperature  
Temperatura media 80 ° F -  
Temperatura máxima 88 ° F 92 ° F 100 ° F (2000)
Temperatura mínima 71 ° F 73 ° F 68 ° F (2013)
Cooling Degree Days 14    
Growing Degree Days 30 (Base 50)    
Moisture  
Punto de rocío 74 ° F    
Average Humidity 78    
Maximum Humidity 100    
Minimum Humidity 54    
Precipitación  
Precipitación 1.34 pul 0.19 pul - ()
Presión al nivel del mar  
Presión al nivel del mar 29.69 pul    
Viento  
Velocidad del viento 8 mph ()    
Velocidad máxima del viento 23 mph    
Max Gust Speed 37 mph    
Visibilidad 6.9 Millas    
Eventos Lluvia , Tormenta    
Averages and records for this station are not official NWS values.
T = Trace of Precipitation, MM = Missing Value Source: Averaged Metar Reports

Daily Weather History Graph

Daily Weather History Graph

Search for Another Location

Airport or City:

Astronomía

Jan. 13, 2018 Salida Puesta
Hora real 6:11 AM -03 7:45 PM -03
Crepúsculo civil 5:46 AM -03 8:10 PM -03
Crepúsculo náutico 5:16 AM -03 8:41 PM -03
Crepúsculo astronómico 4:44 AM -03 9:12 PM -03
Luna 3:28 AM -03 (1/13) 5:04 PM -03 (1/13)
Horas de luz 14h 24m
Horas de luz
13h 33m
Creciente menguante, 10% of the Moon is Illuminated
Ene 13
Creciente menguante
Ene 16
Nueva
Ene 24
Cuarto creciente
Ene 31
Luna llena
Feb 7
Cuarto menguante

Hourly Weather History & Observations

Hora (-03) Temp. Índice de calor Punto de rocío Humedad Presión Visibilidad Wind Dir Velocidad del viento Velocidad de ráfagas Precip Eventos Condiciones
12:00 AM 78 ° F - 76 ° F 93% 29.74 pul 12 mi ENE 6.9 mph - -   Nublado
12:00 AM 78.8 ° F - 75.2 ° F 89% 29.71 pul 6.2 mi ENE 6.9 mph - N/A   Nublado
1:00 AM 77.0 ° F - 73.4 ° F 89% 29.71 pul 6.2 mi ENE 5.8 mph - N/A   Muy nublado
2:00 AM 77.0 ° F - 73.4 ° F 89% 29.68 pul - NE 6.9 mph - N/A   Despejado
3:00 AM 78 ° F - 74 ° F 83% 29.72 pul 12 mi ENE 6.9 mph - -   Despejado
3:00 AM 77.0 ° F - 73.4 ° F 89% 29.71 pul - ENE 6.9 mph - N/A   Despejado
4:00 AM 77.0 ° F - 73.4 ° F 89% 29.68 pul - NE 6.9 mph - N/A   Despejado
5:00 AM 77.0 ° F - 73.4 ° F 89% 29.68 pul - NE 10.4 mph - N/A   Despejado
6:00 AM 77 ° F - 74 ° F 87% 29.72 pul 12 mi NNE 8.1 mph - -   Muy nublado
6:00 AM 77.0 ° F - 73.4 ° F 89% 29.71 pul - NNE 8.1 mph - N/A   Despejado
7:00 AM 77.0 ° F - 73.4 ° F 89% 29.71 pul 6.2 mi NNE 6.9 mph - N/A   Muy nublado
8:00 AM 78.8 ° F - 73.4 ° F 83% 29.71 pul 6.2 mi Norte 11.5 mph - N/A   Muy nublado
8:30 AM 80.6 ° F 85.4 ° F 73.4 ° F 79% 29.71 pul 6.2 mi NNE 11.5 mph - N/A   Muy nublado
9:00 AM 81 ° F - 75 ° F 76% 29.72 pul 12 mi Norte 10.4 mph - -   Nubes dispersas
9:00 AM 82.4 ° F 88.2 ° F 73.4 ° F 74% 29.71 pul 6.2 mi Norte 13.8 mph - N/A   Muy nublado
9:30 AM 82.4 ° F 88.2 ° F 73.4 ° F 74% 29.71 pul 6.2 mi Norte 13.8 mph - N/A   Muy nublado
10:00 AM 82.4 ° F 88.2 ° F 73.4 ° F 74% 29.71 pul 6.2 mi Norte 12.7 mph - N/A   Muy nublado
10:30 AM 86.0 ° F 95.1 ° F 75.2 ° F 70% 29.71 pul 6.2 mi Norte 10.4 mph - N/A   Muy nublado
11:00 AM 87.8 ° F 95.6 ° F 73.4 ° F 62% 29.71 pul 6.2 mi Norte 11.5 mph - N/A   Muy nublado
12:00 PM 87 ° F - 75 ° F 60% 29.71 pul 12 mi Norte 9.2 mph - -   Muy nublado
12:00 PM 87.8 ° F 97.6 ° F 75.2 ° F 66% 29.71 pul 6.2 mi Norte 10.4 mph - N/A   Muy nublado
1:00 PM 87.8 ° F 95.6 ° F 73.4 ° F 62% 29.71 pul 6.2 mi Norte 11.5 mph - N/A   Muy nublado
2:00 PM 89.6 ° F 98.2 ° F 73.4 ° F 59% 29.68 pul 6.2 mi NNO 10.4 mph - N/A   Muy nublado
3:00 PM 89 ° F - 74 ° F 54% 29.70 pul 12 mi Norte 11.5 mph - -   Muy nublado
3:00 PM 89.6 ° F 99.8 ° F 75.2 ° F 62% 29.65 pul 6.2 mi Norte 10.4 mph - N/A   Muy nublado
3:10 PM 89.6 ° F 99.8 ° F 75.2 ° F 62% 29.65 pul 6.2 mi Norte 11.5 mph - N/A   Muy nublado
4:00 PM 87.8 ° F 97.6 ° F 75.2 ° F 66% 29.62 pul 6.2 mi Norte 8.1 mph - N/A Tormenta Tormenta
5:00 PM 86.0 ° F 95.1 ° F 75.2 ° F 70% 29.62 pul 6.2 mi NNE 5.8 mph - N/A Tormenta Tormenta
6:00 PM 85 ° F - 76 ° F 69% 29.66 pul 12 mi ENE 3.5 mph - -   Muy nublado
6:00 PM 84.2 ° F 92.3 ° F 75.2 ° F 74% 29.59 pul 6.2 mi ENE 3.5 mph - N/A Tormenta Tormenta
7:00 PM 84.2 ° F 94.1 ° F 77.0 ° F 79% 29.62 pul 6.2 mi ENE 4.6 mph - N/A Tormenta Muy nublado
8:00 PM 82.4 ° F 90.9 ° F 77.0 ° F 84% 29.62 pul 6.2 mi Variable 4.6 mph - N/A Tormenta Tormenta
9:00 PM 82 ° F - 77 ° F 81% 29.66 pul 6 mi ENE 4.6 mph - - Lluvia , Tormenta Tormenta
9:00 PM 82.4 ° F 90.9 ° F 77.0 ° F 84% 29.65 pul 5.6 mi Variable 4.6 mph - N/A Lluvia , Tormenta Tormenta débil
9:36 PM 80.6 ° F 84.6 ° F 71.6 ° F 74% 29.71 pul 3.7 mi Oeste 17.3 mph 31.1 mph N/A Lluvia , Tormenta Tormenta
10:00 PM 75.2 ° F - 71.6 ° F 89% 29.71 pul 1.9 mi OSO 23.0 mph 36.8 mph N/A Lluvia , Tormenta Tormenta
10:12 PM 73.4 ° F - 71.6 ° F 94% 29.74 pul 0.9 mi SO 12.7 mph 24.2 mph N/A Lluvia , Tormenta Tormenta fuerte
10:28 PM 71.6 ° F - 71.6 ° F 100% 29.71 pul 3.7 mi Sur 11.5 mph 23.0 mph N/A Lluvia , Tormenta Tormenta
11:00 PM 71.6 ° F - 71.6 ° F 100% 29.71 pul 4.3 mi SSE 9.2 mph - N/A Lluvia , Tormenta Tormenta